Lid_Strength_Index
8 11 13 12 11 11 12 15 15 13 10 11 12 11 10 9 11 12 11 11 11 7 5 4 4 4 3 3 3 2 2 1 2 2 3 3 3 3 4 3 2 2 2 3
11 13 10 9 10 11 13 15 16 12 10 11 12 12 9 10 10 10 10 11 10 11 9 6 5 5 4 3 2 2 2 2 2 2 3 3 3 3 3 4 3 2 2 2
12 11 8 10 11 13 13 13 14 15 11 12 13 14 12 10 10 9 10 10 9 9 10 10 7 5 4 4 3 2 2 2 1 1 2 5 5 5 5 5 5 3 2 2
11 8 10 11 12 11 15 11 12 13 14 18 14 19 14 12 11 10 9 10 10 9 10 8 10 7 4 3 3 3 2 2 2 1 2 3 3 4 4 4 4 4 3 2
12 11 11 13 12 10 13 10 11 12 14 15 15 17 15 13 13 11 10 9 8 9 9 9 7 7 5 3 3 3 3 3 2 1 1 2 3 2 3 4 5 4 4 2
11 9 9 10 9 9 9 12 13 13 14 19 15 16 17 15 13 11 10 9 8 8 8 8 7 7 6 3 3 2 3 3 3 2 2 2 2 2 3 4 4 5 4 3
12 12 10 9 12 10 11 14 19 20 20 20 16 16 15 13 12 11 10 9 8 8 8 8 7 8 6 5 2 3 3 3 3 3 2 2 2 2 2 3 4 3 4 4
16 17 11 9 11 13 12 13 18 22 22 19 15 17 15 11 10 9 9 8 8 9 9 8 7 7 7 7 4 3 3 3 3 2 2 2 2 2 2 2 2 3 2 2
15 15 11 9 10 10 13 15 11 17 22 18 17 14 12 11 11 10 10 9 9 8 8 9 8 8 7 7 7 3 3 3 2 2 2 2 2 2 2 2 1 2 2 2
12 16 12 11 9 9 11 10 16 16 21 23 18 17 15 13 11 10 10 9 9 10 9 9 9 9 9 8 7 5 3 3 3 2 2 2 2 2 2 2 2 2 2 2
10 13 14 11 13 14 13 14 14 14 16 20 21 17 13 11 10 11 10 9 10 10 10 10 10 11 11 11 9 6 4 3 4 3 2 2 2 2 2 2 2 2 2 3
9 12 16 14 11 11 10 12 12 17 18 16 17 17 12 12 11 11 11 11 11 11 11 13 13 12 12 12 11 7 5 4 4 4 4 3 2 3 3 3 3 3 3 3
10 14 17 16 13 11 13 12 11 12 13 17 19 16 12 12 12 12 12 12 12 12 11 12 12 12 12 12 11 11 8 5 5 5 5 5 5 4 4 4 4 4 4 4
8 12 15 17 16 13 15 13 12 13 16 16 15 14 11 11 11 10 9 11 12 12 11 11 12 12 12 12 12 11 11 10 10 9 7 7 6 6 5 4 4 4 4 4
9 14 14 13 13 13 14 13 12 14 13 15 14 13 11 9 9 9 8 9 12 11 11 11 11 12 12 12 11 11 11 10 10 10 10 10 10 10 9 9 8 8 8 6
9 14 13 15 12 12 14 12 12 12 12 12 12 13 10 8 8 9 10 10 10 12 11 10 11 12 11 11 11 11 11 11 10 10 10 10 11 10 9 9 10 10 10 9
11 13 15 22 13 13 17 13 13 12 11 11 14 11 8 9 9 9 9 9 10 11 11 10 10 11 11 11 10 11 10 10 11 11 12 13 12 12 12 12 12 12 12 12
11 13 19 24 21 24 15 11 10 11 10 9 10 10 9 8 7 7 7 7 9 10 11 10 9 11 11 11 11 11 11 12 12 13 13 13 13 13 12 12 12 12 13 13
11 13 22 23 25 17 15 15 13 13 13 9 10 9 9 7 7 8 6 6 7 8 9 10 10 11 11 12 12 13 14 14 14 14 14 13 13 14 13 13 13 13 14 15
11 11 16 23 27 27 16 13 10 9 15 9 8 9 9 8 11 10 7 6 6 8 11 11 11 12 13 13 13 14 15 14 14 14 14 13 13 13 14 14 14 15 15 15
14 13 16 17 24 19 15 11 7 15 16 10 9 8 8 9 8 7 8 10 10 11 12 12 13 14 15 14 15 15 15 15 15 14 14 15 14 14 14 14 15 14 14 14
15 16 17 16 17 21 13 11 12 14 13 13 11 11 11 11 9 8 9 12 13 13 14 15 15 16 15 16 15 16 16 16 16 16 15 15 14 14 14 14 14 14 14 14
16 12 15 13 14 11 13 13 15 15 15 14 14 13 13 13 12 10 12 14 14 15 16 16 16 16 17 16 15 16 16 17 16 15 15 15 15 15 14 14 14 14 14 14
12 15 12 13 14 16 14 14 17 17 18 16 16 16 14 14 12 13 14 14 15 17 18 18 18 18 19 19 19 19 19 19 20 19 18 18 16 16 15 15 15 14 14 14
19 18 19 16 16 16 15 17 19 19 18 18 17 16 15 15 14 15 15 16 17 18 19 19 20 20 21 21 22 22 21 19 18 19 20 19 19 20 19 18 16 16 15 14
23 25 21 17 22 24 22 20 21 20 20 19 18 18 16 17 16 16 18 18 19 20 21 22 22 23 23 23 24 24 22 19 19 20 20 21 20 21 21 20 19 13 12 13